This demonstration page uses our WeatherBlox Daily Observations layout. Learn more.

Left ArrowRight Arrow

Hourly Observations for July 30, 2016

Temp ( °F °C ) Dew Point ( °F °C ) Humidity (%) Winds ( mph kmh ) Pressure ( in mb ) Visibility ( mi km ) Precip ( " mm )
12:36 am 00:36 Mostly Cloudy with Mist and Fog 73 22.8 71 21.7 94 94 ESE 5 7 29.94 1014 5 8 N/A
12:53 am 00:53 Mostly Cloudy 72 22.2 70 21.1 94 94 E 6 9 29.92 1013 7 11 N/A
1:33 am 01:33 Mostly Cloudy 71 21.7 69 20.6 94 94 N N/A 29.94 1014 7 11 N/A
1:44 am 01:44 Partly Cloudy 71 21.7 69 20.6 94 94 N N/A 29.94 1014 7 11 N/A
1:53 am 01:53 Mostly Clear 71 21.7 69 20.6 94 94 N N/A 29.91 1013 7 11 N/A
2:53 am 02:53 Partly Cloudy with Mist and Fog 70 21.1 68 20 93 93 N N/A 29.90 1013 4 6 N/A
3:01 am 03:01 Mostly Cloudy with Mist and Fog 70 21.1 68 20 93 93 N N/A 29.91 1013 4 6 N/A
3:11 am 03:11 Partly Cloudy with Mist and Fog 69 20.6 68 20 96 96 N N/A 29.91 1013 5 8 N/A
3:53 am 03:53 Clear with Mist and Fog 69 20.6 67 19.4 93 93 N N/A 29.89 1012 3 5 N/A
4:53 am 04:53 Clear with Mist and Fog 69 20.6 67 19.4 93 93 N N/A 29.91 1013 4 6 N/A
5:16 am 05:16 Mostly Cloudy with Mist and Fog 69 20.6 67 19.4 93 93 N N/A 29.91 1013 4 6 N/A
5:30 am 05:30 Cloudy with Mist and Fog 70 21.1 69 20.6 97 97 NW 5 7 29.94 1014 4 6 N/A
5:44 am 05:44 Cloudy with Mist and Fog 71 21.7 69 20.6 94 94 W 3 6 29.94 1014 5 8 N/A
5:53 am 05:53 Cloudy with Mist and Fog 71 21.7 69 20.6 94 94 WNW 3 6 29.92 1013 5 8 N/A
6:34 am 06:34 Cloudy with Mist and Fog 70 21.1 68 20 93 93 N N/A 29.94 1014 3 5 N/A
6:44 am 06:44 Mostly Cloudy with Mist and Fog 70 21.1 68 20 93 93 N N/A 29.94 1014 3 4 N/A
6:53 am 06:53 Mostly Cloudy with Mist and Fog 70 21.1 68 20 93 93 N N/A 29.93 1013 2 3 N/A
7:11 am 07:11 Cloudy with Mist and Fog 71 21.7 69 20.6 94 94 N N/A 29.94 1014 3 5 N/A
7:25 am 07:25 Cloudy with Mist and Fog 71 21.7 69 20.6 94 94 N N/A 29.94 1014 3 4 N/A
7:38 am 07:38 Cloudy with Mist and Fog 72 22.2 70 21.1 94 94 N N/A 29.97 1015 3 5 N/A
7:53 am 07:53 Cloudy with Mist and Fog 72 22.2 70 21.1 94 94 N N/A 29.95 1014 4 6 N/A
8:53 am 08:53 Cloudy with Mist and Fog 73 22.8 70 21.1 90 90 WNW 6 9 29.96 1014 6 10 N/A
9:53 am 09:53 Cloudy 75 23.9 70 21.1 84 84 W 6 9 29.96 1015 8 13 N/A
10:19 am 10:19 Mostly Cloudy 76 24.4 71 21.7 85 85 WSW 3 6 29.97 1015 9 14 N/A
10:53 am 10:53 Mostly Cloudy 77 25 71 21.7 82 82 SW 6 9 29.98 1015 10 16 N/A
11:02 am 11:02 Mostly Cloudy 79 26.1 72 22.2 79 79 SW 6 9 30.00 1016 10 16 N/A
11:10 am 11:10 Partly Cloudy 79 26.1 71 21.7 77 77 N N/A 30.00 1016 10 16 N/A
11:53 am 11:53 Mostly Cloudy 81 27.2 70 21.1 69 69 VRB 6 9 29.97 1015 10 16 N/A
12:53 pm 12:53 Mostly Cloudy 82 27.8 69 20.6 65 65 NW 6 9 29.97 1015 10 16 N/A
1:53 pm 13:53 Partly Cloudy 85 29.4 68 20 57 57 WSW 9 15 29.96 1015 10 16 N/A
2:53 pm 14:53 Sunny 86 30 67 19.4 53 53 N N/A 29.94 1014 10 16 N/A
3:53 pm 15:53 Mostly Sunny 86 30 67 19.4 53 53 WSW 7 11 29.93 1013 10 16 N/A
4:53 pm 16:53 Sunny 87 30.6 66 18.9 50 50 SW 9 15 29.92 1013 10 16 N/A
5:53 pm 17:53 Mostly Cloudy 87 30.6 64 17.8 46 46 W 10 17 29.92 1013 10 16 N/A
6:53 pm 18:53 Partly Cloudy 86 30 65 18.3 49 49 W 8 13 29.92 1013 10 16 N/A
7:53 pm 19:53 Sunny 84 28.9 65 18.3 53 53 W 7 11 29.93 1013 10 16 N/A
8:53 pm 20:53 Clear 80 26.7 65 18.3 60 60 WSW 5 7 29.93 1013 10 16 N/A
9:53 pm 21:53 Clear 73 22.8 67 19.4 81 81 N N/A 29.94 1014 10 16 N/A
10:53 pm 22:53 Clear 71 21.7 68 20 90 90 N N/A 29.97 1015 10 16 N/A
11:53 pm 23:53 Clear 70 21.1 67 19.4 90 90 N N/A 29.97 1015 10 16 N/A

Powered by AerisWeather